Location: Saint Louis
(38.6272°N, 90.1978°W)
Time: 17:18:05
(UTC-05:00)

ISS - Pass Details

Date: 18 June 2013
Orbit: 401 x 403 km, 51.6° (Epoch: 28 July)

Event Time Altitude Azimuth Distance (km) Brightness Sun altitude
Rises 23:18:40 0° 314° (NW) 2,335 1.7 -23.4°
Reaches altitude 10° 23:20:52 10° 323° (NW) 1,469 0.5 -23.6°
Enters shadow 23:23:24 34° 8° (N) 696 -1.7 -23.8°
